[[{"header":{"parameterUnit":"m.s-1","parameterCategory":1,"la1":30.2991,"la2":30.254,"lo1":-89.0895,"lo2":-89.0444,"dy":0.0017,"dx":0.0017,"nx":28,"ny":28,"refTime":"2023-05-26T21:00:00:Z","depth":0,"parameterNumber":2,"parameterNumberName":"U-component_of_WINDS"},"data":[0,0,0,0,0,0,0,0,0,0,0,0,0,0,0,0,0,0,0,0,0,0,0,0,0,0,0,0,0,0,0,0,0,0,0,0,0,0,0,0,0,0,0,0,0,0,0,0,0,0,0,0,0,0,0,0,0,0,-0.3698,-0.3698,0,-0.3696,-0.3696,-0.3696,-0.3693,-0.3693,-0.3693,-0.3693,-0.3691,-0.3691,-0.3691,0,0,0,0,0,0,0,0,0,0,0,0,0,-0.3698,-0.3698,-0.3698,-0.3698,-0.3698,-0.3696,-0.3696,-0.3696,-0.3693,-0.3693,-0.3693,-0.3693,-0.3691,-0.3691,-0.3691,0,0,0,0,0,0,0,0,0,0,0,0,0,-0.3697,-0.3698,-0.3698,-0.3696,-0.3696,-0.3696,-0.3696,-0.3696,-0.3693,-0.3693,-0.3693,-0.3693,-0.3691,-0.3691,-0.3691,-0.3693,0,0,-0.3691,-0.3691,0,0,0,0,0,0,0,0,-0.3697,-0.3697,-0.3696,-0.3696,-0.3696,-0.3695,-0.3696,-0.3695,-0.3693,-0.3694,-0.3693,-0.3693,-0.3693,-0.3693,-0.3692,-0.3693,-0.3693,-0.3691,-0.3691,-0.3691,-0.3691,0,0,0,0,0,0,0,-0.3697,-0.3697,-0.3697,-0.3696,-0.3696,-0.3695,-0.3695,-0.3695,-0.3694,-0.3694,-0.3694,-0.3694,-0.3693,-0.3692,-0.3692,-0.3693,-0.3691,-0.3691,-0.3691,-0.3691,-0.3694,-0.3695,0,0,0,0,0,0,-0.3698,-0.3697,-0.3697,-0.3697,-0.3696,-0.3695,-0.3695,-0.3695,-0.3694,-0.3694,-0.3694,-0.3694,-0.3692,-0.3692,-0.3692,-0.3694,-0.3691,-0.3691,-0.3691,-0.3694,-0.3695,-0.3695,0,0,0,0,0,0,-0.3698,-0.3698,-0.3697,-0.3697,-0.3697,-0.3695,-0.3696,-0.3695,-0.3695,-0.3694,-0.3693,-0.3694,-0.3692,-0.3692,-0.3693,-0.3694,-0.3691,-0.3691,-0.3694,-0.3694,-0.3695,-0.3697,0,0,0,0,0,0,-0.3698,-0.3698,-0.3698,-0.3697,-0.3697,-0.3698,-0.3696,-0.3695,-0.3695,-0.3695,-0.3694,-0.3694,-0.3692,-0.3693,-0.3693,-0.3694,-0.3691,-0.3694,-0.3694,-0.3695,-0.3697,-0.3697,-0.3698,0,0,0,0,0,-0.3698,-0.3699,-0.3698,-0.3698,-0.3698,-0.3698,-0.3698,-0.3696,-0.3695,-0.3696,-0.3695,-0.3694,-0.3694,-0.3693,-0.3693,-0.3694,-0.3694,-0.3694,-0.3694,-0.3697,-0.3697,-0.3698,0,0,0,0,0,0,-0.37,-0.3699,-0.3698,-0.3699,-0.3699,-0.3697,-0.3698,-0.3697,-0.3697,-0.3696,-0.3695,-0.3694,-0.3695,-0.3695,-0.3694,-0.3695,-0.3694,-0.3694,-0.3696,-0.3696,-0.3696,-0.3696,-0.3692,0,0,0,0,0,-0.3701,-0.3701,-0.37,-0.3701,-0.3701,-0.37,-0.37,-0.3699,-0.3698,-0.3698,-0.3697,-0.3696,-0.3696,-0.3696,-0.3696,-0.3697,-0.3697,-0.3698,-0.3698,-0.3698,-0.3698,-0.3699,-0.3699,-0.3695,-0.3695,-0.3695,0,0,-0.3703,-0.3702,-0.3702,-0.3702,-0.3701,-0.3701,-0.3699,-0.37,-0.37,-0.3698,-0.3698,-0.3697,-0.3697,-0.3697,-0.3698,-0.3697,-0.3699,-0.3698,-0.3699,-0.3699,-0.3699,-0.3699,-0.37,-0.3695,-0.3695,-0.3695,0,0,-0.3706,-0.3705,-0.3706,-0.3705,-0.3705,-0.3704,-0.3704,-0.3703,-0.3702,-0.3703,-0.3701,-0.3701,-0.3701,-0.37,-0.37,-0.3703,-0.3701,-0.3703,-0.3704,-0.3705,-0.3705,-0.3705,-0.3706,-0.3706,-0.3703,-0.3703,-0.3703,0,-0.3708,-0.3708,-0.3706,-0.3707,-0.3707,-0.3705,-0.3705,-0.3705,-0.3704,-0.3704,-0.3703,-0.3703,-0.3702,-0.3703,-0.3703,-0.3703,-0.3703,-0.3703,-0.3705,-0.3705,-0.3706,-0.3706,-0.3706,-0.3703,-0.3703,-0.3703,-0.3703,0,-0.371,-0.371,-0.3711,-0.371,-0.371,-0.3711,-0.3709,-0.3709,-0.3708,-0.3707,-0.3708,-0.3707,-0.3707,-0.3707,-0.3706,-0.3707,-0.3706,-0.3705,-0.3704,-0.3706,-0.3707,-0.3707,-0.3703,-0.3703,-0.3703,-0.3703,0,0,-0.3715,-0.3713,-0.3713,-0.3713,-0.3712,-0.3712,-0.3712,-0.3712,-0.3712,-0.3711,-0.3712,-0.3712,-0.371,-0.371,-0.3709,-0.3709,-0.3711,-0.3708,-0.3708,-0.3709,-0.3712,-0.3713,-0.3713,-0.371,-0.371,-0.371,-0.3712,0,-0.3717,-0.3718,-0.3716,-0.3717,-0.3717,-0.3716,-0.3716,-0.3715,-0.3714,-0.3714,-0.3713,-0.3713,-0.3712,-0.3712,-0.3712,-0.3711,-0.3712,-0.3711,-0.371,-0.371,-0.371,-0.3714,-0.3714,-0.3716,-0.3713,-0.3713,-0.3713,0,-0.372,-0.372,-0.372,-0.3719,-0.3719,-0.372,-0.3719,-0.3719,-0.3718,-0.3717,-0.3717,-0.3716,-0.3716,-0.3715,-0.3715,-0.3714,-0.3714,-0.3713,-0.3713,-0.3713,-0.3712,-0.3713,-0.3717,-0.3717,-0.3713,-0.3713,-0.3713,0,-0.3723,-0.3723,-0.3723,-0.3723,-0.3721,-0.3722,-0.3721,-0.372,-0.372,-0.3719,-0.3719,-0.3719,-0.3718,-0.3718,-0.3717,-0.3716,-0.3717,-0.3716,-0.3716,-0.3716,-0.3716,-0.3716,-0.372,-0.3717,-0.3717,-0.3717,-0.3717,0,-0.3726,-0.3726,-0.3724,-0.3725,-0.3725,-0.3724,-0.3724,-0.3723,-0.3723,-0.3723,-0.3721,-0.3721,-0.3719,-0.3719,-0.3718,-0.3718,-0.3718,-0.3717,-0.3717,-0.3718,-0.3718,-0.3717,-0.3717,-0.3717,-0.3717,-0.3717,-0.3717,0,-0.3729,-0.3728,-0.3728,-0.3727,-0.3726,-0.3727,-0.3726,-0.3726,-0.3725,-0.3725,-0.3725,-0.3723,-0.3723,-0.3721,-0.3721,-0.372,-0.3721,-0.372,-0.3721,-0.3721,-0.3721,-0.3721,-0.3724,-0.3725,-0.3722,-0.3722,-0.3722,0,-0.373,-0.3731,-0.373,-0.3729,-0.3729,-0.3729,-0.3729,-0.3727,-0.3727,-0.3726,-0.3726,-0.3726,-0.3725,-0.3725,-0.3724,-0.3723,-0.3722,-0.3724,-0.3722,-0.3723,-0.3722,-0.3722,-0.3722,-0.3724,-0.3724,-0.3724,-0.3724,0,-0.3734,-0.3733,-0.3733,-0.3732,-0.3732,-0.3731,-0.3731,-0.3731,-0.3729,-0.3729,-0.3729,-0.3728,-0.3728,-0.3727,-0.3726,-0.3726,-0.3725,-0.3724,-0.3724,-0.3725,-0.3725,-0.3725,-0.3721,-0.3724,-0.3724,-0.3724,-0.3724,-0.3724,-0.3736,-0.3736,-0.3735,-0.3735,-0.3734,-0.3734,-0.3734,-0.3733,-0.3733,-0.3732,-0.3731,-0.3731,-0.373,-0.3729,-0.3728,-0.3728,-0.3727,-0.3727,-0.3727,-0.3727,-0.3728,-0.3725,-0.3728,-0.3728,-0.3728,-0.3728,-0.3728,0,-0.3739,-0.3738,-0.3738,-0.3737,-0.3737,-0.3736,-0.3735,-0.3735,-0.3735,-0.3734,-0.3734,-0.3733,-0.3733,-0.3731,-0.3731,-0.3731,-0.373,-0.3731,-0.373,-0.373,-0.3728,-0.3728,-0.3731,-0.3731,-0.3731,-0.3731,-0.3731,-0.3731,-0.374,-0.374,-0.374,-0.3739,-0.3739,-0.3739,-0.3738,-0.3738,-0.3737,-0.3737,-0.3736,-0.3735,-0.3734,-0.3734,-0.3733,-0.3733,-0.3733,-0.3733,-0.3733,-0.3731,-0.373,-0.373,-0.373,-0.3733,-0.3733,-0.3735,-0.3735,-0.3735]},{"header":{"parameterUnit":"m.s-1","parameterCategory":1,"la1":30.2991,"la2":30.254,"lo1":-89.0895,"lo2":-89.0444,"dy":0.0017,"dx":0.0017,"nx":28,"ny":28,"refTime":"2023-05-26T21:00:00:Z","depth":0,"parameterNumber":3,"parameterNumberName":"V-component_of_WINDS"},"data":[0,0,0,0,0,0,0,0,0,0,0,0,0,0,0,0,0,0,0,0,0,0,0,0,0,0,0,0,0,0,0,0,0,0,0,0,0,0,0,0,0,0,0,0,0,0,0,0,0,0,0,0,0,0,0,0,0,0,2.9273,2.9273,0,2.9351,2.9352,2.9353,2.9414,2.9415,2.9416,2.9416,2.949,2.9492,2.9493,0,0,0,0,0,0,0,0,0,0,0,0,0,2.9167,2.9169,2.9272,2.9273,2.9274,2.9351,2.9352,2.9353,2.9414,2.9415,2.9416,2.9416,2.949,2.9492,2.9493,0,0,0,0,0,0,0,0,0,0,0,0,0,2.9226,2.9169,2.9272,2.9314,2.9319,2.9351,2.9352,2.9353,2.9414,2.9415,2.9416,2.9417,2.9489,2.9492,2.9494,2.9488,0,0,2.95,2.9501,0,0,0,0,0,0,0,0,2.9222,2.923,2.9307,2.9311,2.9317,2.9374,2.9342,2.9398,2.9414,2.9378,2.9416,2.9417,2.9451,2.9456,2.9468,2.9492,2.9495,2.95,2.9502,2.9502,2.9503,0,0,0,0,0,0,0,2.9218,2.9226,2.9303,2.9308,2.9314,2.9327,2.9336,2.9353,2.9408,2.9381,2.9386,2.9394,2.9453,2.9466,2.9471,2.9496,2.95,2.9502,2.9503,2.9504,2.9515,2.9514,0,0,0,0,0,0,2.9209,2.9223,2.9301,2.9306,2.9271,2.9328,2.9338,2.9355,2.9408,2.9417,2.9394,2.9397,2.9462,2.9468,2.9473,2.9469,2.9502,2.9504,2.9506,2.9516,2.9515,2.9513,0,0,0,0,0,0,2.9206,2.9215,2.9298,2.9266,2.9277,2.9329,2.9346,2.9356,2.9369,2.9418,2.9427,2.9397,2.9463,2.9471,2.9484,2.9472,2.9505,2.9507,2.9517,2.9515,2.9514,2.946,0,0,0,0,0,0,2.9203,2.9214,2.9215,2.9265,2.9279,2.9309,2.9346,2.9356,2.9373,2.9378,2.9424,2.9432,2.9464,2.948,2.9486,2.9475,2.9509,2.9518,2.9516,2.9514,2.9463,2.9456,2.9451,0,0,0,0,0,2.9199,2.9196,2.9214,2.9223,2.9281,2.9308,2.9316,2.9355,2.9372,2.9371,2.9402,2.943,2.9472,2.9481,2.9488,2.9478,2.9519,2.9517,2.9515,2.9465,2.9458,2.9451,0,0,0,0,0,0,2.9141,2.9203,2.9225,2.9238,2.9267,2.9319,2.932,2.9346,2.937,2.9374,2.942,2.9429,2.9437,2.9459,2.9467,2.9474,2.9499,2.9498,2.9459,2.9452,2.9447,2.9441,2.9511,0,0,0,0,0,2.913,2.9149,2.9202,2.9208,2.9222,2.9268,2.9281,2.9309,2.9341,2.9353,2.9385,2.9412,2.9432,2.9443,2.9464,2.9466,2.9475,2.9462,2.9456,2.9452,2.945,2.9449,2.9443,2.9506,2.9506,2.9506,0,0,2.9107,2.9143,2.9152,2.9197,2.9223,2.9239,2.9278,2.9294,2.9306,2.9355,2.9369,2.9393,2.9427,2.9433,2.9438,2.9452,2.9434,2.9449,2.9444,2.9445,2.9446,2.944,2.9435,2.9505,2.9505,2.9505,0,0,2.9073,2.9103,2.9111,2.9136,2.9176,2.9206,2.9207,2.9254,2.9272,2.9287,2.9324,2.9337,2.937,2.9391,2.9407,2.9377,2.9403,2.9382,2.9352,2.9351,2.9346,2.9342,2.9329,2.9324,2.9381,2.9381,2.9381,0,2.9039,2.9067,2.9111,2.9124,2.9141,2.9188,2.9193,2.9215,2.9258,2.9267,2.9283,2.9324,2.935,2.9361,2.9353,2.9365,2.9366,2.9377,2.9344,2.934,2.9336,2.9324,2.932,2.9378,2.9378,2.9378,2.9379,0,2.9021,2.904,2.9041,2.9082,2.91,2.9109,2.9151,2.9163,2.9188,2.9216,2.9228,2.9261,2.9288,2.9293,2.9318,2.9306,2.9313,2.9335,2.9362,2.9327,2.9316,2.9312,2.9374,2.9375,2.9375,2.9376,0,0,2.8955,2.9019,2.9018,2.9036,2.9081,2.9095,2.9105,2.9132,2.914,2.9167,2.9175,2.92,2.922,2.9238,2.9265,2.9264,2.9235,2.9286,2.9287,2.9273,2.9221,2.9203,2.9197,2.9253,2.9252,2.9252,2.9217,0,2.8926,2.8949,2.8987,2.8996,2.9012,2.9054,2.9062,2.9089,2.9114,2.9129,2.9156,2.9173,2.9199,2.9209,2.9211,2.9238,2.9225,2.9242,2.9257,2.9257,2.9246,2.9192,2.9174,2.914,2.9214,2.9213,2.9213,0,2.8897,2.8922,2.8933,2.8975,2.8983,2.8989,2.9016,2.9031,2.906,2.9078,2.9096,2.9126,2.9135,2.9159,2.9171,2.9181,2.919,2.9204,2.9204,2.9205,2.9232,2.919,2.9131,2.9124,2.9207,2.9208,2.9208,0,2.8844,2.8881,2.8891,2.8906,2.8955,2.8958,2.8978,2.9009,2.9022,2.9044,2.9053,2.9075,2.9087,2.9102,2.9136,2.9151,2.9142,2.9171,2.9155,2.9154,2.9151,2.915,2.9089,2.9158,2.9159,2.9159,2.9159,0,2.8808,2.8812,2.8868,2.8874,2.8879,2.8921,2.8924,2.8947,2.8974,2.8983,2.9021,2.9028,2.9073,2.9085,2.9111,2.9115,2.912,2.9133,2.9139,2.9129,2.9127,2.9134,2.9136,2.9157,2.9158,2.9158,2.9158,0,2.875,2.8788,2.8801,2.8846,2.8857,2.8858,2.8896,2.8902,2.8928,2.8939,2.8944,2.8985,2.9,2.9036,2.906,2.9078,2.9074,2.9087,2.9064,2.9068,2.905,2.905,2.899,2.8983,2.9058,2.9057,2.9057,0,2.8723,2.8728,2.8773,2.8782,2.8801,2.8816,2.8829,2.887,2.8882,2.8914,2.8915,2.8934,2.8951,2.8973,2.9003,2.9021,2.9034,2.9011,2.9037,2.9025,2.9031,2.9029,2.9028,2.9005,2.9004,2.9004,2.9003,0,2.8672,2.869,2.8709,2.8732,2.8747,2.8768,2.879,2.8795,2.884,2.8851,2.8868,2.8881,2.8906,2.8922,2.8945,2.8963,2.8989,2.8995,2.8992,2.898,2.8965,2.8971,2.9047,2.8996,2.8996,2.8997,2.8997,2.8998,2.8628,2.8632,2.8664,2.8682,2.8703,2.8722,2.8729,2.8757,2.8772,2.8796,2.8818,2.8832,2.8858,2.8891,2.8907,2.8916,2.893,2.8926,2.8925,2.8923,2.8917,2.8965,2.8921,2.8921,2.8921,2.8921,2.8922,0,2.8576,2.8598,2.8615,2.8645,2.8658,2.8683,2.8708,2.8717,2.8729,2.8752,2.8768,2.8785,2.8801,2.8832,2.8849,2.8851,2.8863,2.8854,2.8853,2.8856,2.8905,2.8905,2.8843,2.8843,2.8843,2.8843,2.8843,2.8843,2.8551,2.8559,2.858,2.8597,2.8618,2.8633,2.8645,2.8661,2.868,2.8698,2.8711,2.8732,2.8757,2.8776,2.8791,2.8799,2.8803,2.8789,2.8801,2.8846,2.8853,2.886,2.886,2.879,2.879,2.8751,2.8751,2.8751]}]]